Time,TemperatureF,DewpointF,PressureIn,WindDirection,WindDirectionDegrees,WindSpeedMPH,WindSpeedGustMPH,Humidity,HourlyPrecipIn,Conditions,Clouds,dailyrainin,SoftwareType,DateUTC
2013-02-07 00:01:00,23.7,17.3,29.96,NNE,17,6.3,8.7,76,0.00,,---,0.00,VWS V14.00,2013-02-07 06:01:00,
2013-02-07 00:06:00,23.7,17.3,29.96,North,6,6.3,6.3,76,0.00,,---,0.00,VWS V14.00,2013-02-07 06:06:00,
2013-02-07 00:11:00,23.7,17.3,29.99,NNE,28,5.4,7.6,76,0.00,,---,0.00,VWS V14.00,2013-02-07 06:11:00,
2013-02-07 00:16:00,23.7,17.3,29.99,North,6,5.4,7.6,76,0.00,,---,0.00,VWS V14.00,2013-02-07 06:16:00,
2013-02-07 00:21:00,23.7,17.3,29.99,North,10,5.8,8.1,76,0.00,,---,0.00,VWS V14.00,2013-02-07 06:21:00,
2013-02-07 00:26:00,23.7,17.3,29.99,NNE,25,6.3,8.7,76,0.00,,---,0.00,VWS V14.00,2013-02-07 06:26:00,
2013-02-07 00:31:00,23.5,17.1,29.99,NNE,21,6.3,8.7,76,0.00,,---,0.00,VWS V14.00,2013-02-07 06:31:00,
2013-02-07 00:36:00,23.5,17.1,29.99,NE,34,6.7,6.7,76,0.00,,---,0.00,VWS V14.00,2013-02-07 06:36:00,
2013-02-07 00:41:00,23.5,17.1,29.99,North,9,8.3,8.3,76,0.00,,---,0.00,VWS V14.00,2013-02-07 06:41:00,
2013-02-07 00:46:00,23.5,17.1,29.99,North,5,5.8,8.7,76,0.00,,---,0.00,VWS V14.00,2013-02-07 06:46:00,
2013-02-07 00:51:00,23.5,17.1,29.99,NNE,29,5.4,8.3,76,0.00,,---,0.00,VWS V14.00,2013-02-07 06:51:00,
2013-02-07 00:56:00,23.5,17.1,29.99,NNE,14,5.4,8.7,76,0.00,,---,0.00,VWS V14.00,2013-02-07 06:56:00,
2013-02-07 01:01:00,23.5,17.1,29.99,North,7,6.3,6.3,76,0.00,,---,0.00,VWS V14.00,2013-02-07 07:01:00,
2013-02-07 01:06:00,23.5,17.1,29.99,NNE,21,6.3,6.3,76,0.00,,---,0.00,VWS V14.00,2013-02-07 07:06:00,
2013-02-07 01:11:00,23.5,17.1,29.99,North,10,5.4,8.1,76,0.00,,---,0.00,VWS V14.00,2013-02-07 07:11:00,
2013-02-07 01:16:00,23.5,17.1,29.99,NNE,29,6.3,6.7,76,0.00,,---,0.00,VWS V14.00,2013-02-07 07:16:00,
2013-02-07 01:21:00,23.5,17.1,29.99,NNE,17,8.7,8.7,76,0.00,,---,0.00,VWS V14.00,2013-02-07 07:21:00,
2013-02-07 01:26:00,23.5,17.1,29.99,NNE,24,8.1,8.1,76,0.00,,---,0.00,VWS V14.00,2013-02-07 07:26:00,
2013-02-07 01:31:00,23.5,17.1,29.99,North,7,8.7,8.7,76,0.00,,---,0.00,VWS V14.00,2013-02-07 07:31:00,
2013-02-07 01:36:00,23.5,17.1,29.99,NE,41,5.8,6.3,76,0.00,,---,0.00,VWS V14.00,2013-02-07 07:36:00,
2013-02-07 01:41:00,23.5,17.1,29.99,NNE,23,8.3,8.3,76,0.00,,---,0.00,VWS V14.00,2013-02-07 07:41:00,
2013-02-07 01:46:00,23.5,17.1,29.99,North,8,5.8,10.5,76,0.00,,---,0.00,VWS V14.00,2013-02-07 07:46:00,
2013-02-07 01:51:00,23.5,17.1,29.99,NNE,14,5.8,7.6,76,0.00,,---,0.00,VWS V14.00,2013-02-07 07:51:00,
2013-02-07 01:56:00,23.5,17.1,29.99,North,357,7.6,9.2,76,0.00,,---,0.00,VWS V14.00,2013-02-07 07:56:00,
2013-02-07 02:01:00,23.5,17.1,29.99,North,1,8.3,8.3,76,0.00,,---,0.00,VWS V14.00,2013-02-07 08:01:00,
2013-02-07 02:06:00,23.4,17.2,29.99,NNE,32,6.3,6.7,77,0.00,,---,0.00,VWS V14.00,2013-02-07 08:06:00,
2013-02-07 02:11:00,23.4,17.2,29.99,North,3,10.5,10.5,77,0.00,,---,0.00,VWS V14.00,2013-02-07 08:11:00,
2013-02-07 02:16:00,23.4,17.2,29.99,North,8,8.1,11.0,77,0.00,,---,0.00,VWS V14.00,2013-02-07 08:16:00,
2013-02-07 02:21:00,23.4,17.2,29.99,North,11,7.6,10.5,77,0.00,,---,0.00,VWS V14.00,2013-02-07 08:21:00,
2013-02-07 02:26:00,23.4,17.2,29.99,NNE,13,7.6,8.1,77,0.00,,---,0.00,VWS V14.00,2013-02-07 08:26:00,
2013-02-07 02:32:00,23.4,17.2,29.99,North,6,6.3,8.7,77,0.00,,---,0.00,VWS V14.00,2013-02-07 08:32:00,
2013-02-07 02:37:00,23.4,17.2,29.99,NE,35,4.0,6.7,77,0.00,,---,0.00,VWS V14.00,2013-02-07 08:37:00,
2013-02-07 02:42:00,23.4,17.2,29.99,NNE,28,7.2,7.6,77,0.00,,---,0.00,VWS V14.00,2013-02-07 08:42:00,
2013-02-07 02:47:00,23.4,17.2,29.99,NNE,31,3.6,8.1,77,0.00,,---,0.00,VWS V14.00,2013-02-07 08:47:00,
2013-02-07 02:52:00,23.4,17.5,29.99,NNE,28,6.3,7.6,78,0.00,,---,0.00,VWS V14.00,2013-02-07 08:52:00,
2013-02-07 02:57:00,23.2,17.4,29.99,NNE,12,5.8,7.6,78,0.00,,---,0.00,VWS V14.00,2013-02-07 08:57:00,
2013-02-07 03:02:00,23.2,17.4,29.99,NNE,13,5.4,7.6,78,0.00,,---,0.00,VWS V14.00,2013-02-07 09:02:00,
2013-02-07 03:07:00,23.2,17.4,29.99,North,3,5.8,8.3,78,0.00,,---,0.00,VWS V14.00,2013-02-07 09:07:00,
2013-02-07 03:12:00,23.2,17.4,29.99,North,4,8.1,8.1,78,0.00,,---,0.00,VWS V14.00,2013-02-07 09:12:00,
2013-02-07 03:17:00,23.2,17.6,29.99,North,6,7.6,9.6,79,0.00,,---,0.00,VWS V14.00,2013-02-07 09:17:00,
2013-02-07 03:22:00,23.2,17.6,29.99,NNE,14,7.2,8.1,79,0.00,,---,0.00,VWS V14.00,2013-02-07 09:22:00,
2013-02-07 03:27:00,23.2,17.6,29.99,North,357,8.7,10.5,79,0.00,,---,0.00,VWS V14.00,2013-02-07 09:27:00,
2013-02-07 03:32:00,23.2,17.9,29.99,NNE,15,6.3,10.1,80,0.00,,---,0.00,VWS V14.00,2013-02-07 09:32:00,
2013-02-07 03:37:00,23.2,17.9,29.99,NNE,26,8.1,8.3,80,0.00,,---,0.00,VWS V14.00,2013-02-07 09:37:00,
2013-02-07 03:42:00,23.2,17.9,29.99,NNE,12,5.4,8.7,80,0.00,,---,0.00,VWS V14.00,2013-02-07 09:42:00,
2013-02-07 03:47:00,23.2,18.2,29.99,NNE,33,6.3,8.1,81,0.00,,---,0.00,VWS V14.00,2013-02-07 09:47:00,
2013-02-07 03:52:00,23.0,18.3,29.99,North,10,5.4,8.3,82,0.00,,---,0.00,VWS V14.00,2013-02-07 09:52:00,
2013-02-07 03:57:00,23.0,18.6,29.99,North,2,9.6,10.5,83,0.00,,---,0.00,VWS V14.00,2013-02-07 09:57:00,
2013-02-07 04:02:00,23.0,18.6,29.99,NNE,17,5.4,8.7,83,0.00,,---,0.00,VWS V14.00,2013-02-07 10:02:00,
2013-02-07 04:07:00,23.0,18.9,29.99,North,11,8.1,8.1,84,0.00,,---,0.00,VWS V14.00,2013-02-07 10:07:00,
2013-02-07 04:12:00,23.0,18.9,30.02,NNE,33,5.8,8.1,84,0.00,,---,0.00,VWS V14.00,2013-02-07 10:12:00,
2013-02-07 04:17:00,23.0,19.2,30.02,NNE,19,5.4,8.3,85,0.00,,---,0.00,VWS V14.00,2013-02-07 10:17:00,
2013-02-07 04:22:00,23.0,19.5,30.02,NNE,18,6.3,8.7,86,0.00,,---,0.00,VWS V14.00,2013-02-07 10:22:00,
2013-02-07 04:27:00,23.2,19.6,30.02,NE,50,3.1,8.1,86,0.00,,---,0.00,VWS V14.00,2013-02-07 10:27:00,
2013-02-07 04:32:00,23.2,19.6,30.02,NNE,17,5.8,8.3,86,0.00,,---,0.00,VWS V14.00,2013-02-07 10:32:00,
2013-02-07 04:37:00,23.0,19.7,30.02,NNE,16,8.1,10.1,87,0.00,,---,0.00,VWS V14.00,2013-02-07 10:37:00,
2013-02-07 04:42:00,23.0,19.7,30.02,NNE,14,8.1,10.1,87,0.00,,---,0.00,VWS V14.00,2013-02-07 10:42:00,
2013-02-07 04:47:00,23.0,20.0,30.02,North,350,6.7,8.7,88,0.00,,---,0.00,VWS V14.00,2013-02-07 10:47:00,
2013-02-07 04:52:00,23.0,20.0,30.02,North,7,5.8,7.2,88,0.00,,---,0.00,VWS V14.00,2013-02-07 10:52:00,
2013-02-07 04:57:00,23.0,20.0,30.02,North,3,6.7,6.7,88,0.00,,---,0.00,VWS V14.00,2013-02-07 10:57:00,
2013-02-07 05:02:00,23.0,20.2,30.02,NNE,18,8.1,8.7,89,0.00,,---,0.00,VWS V14.00,2013-02-07 11:02:00,
2013-02-07 05:07:00,23.0,20.2,30.02,North,11,7.6,10.1,89,0.00,,---,0.00,VWS V14.00,2013-02-07 11:07:00,
2013-02-07 05:12:00,23.0,20.2,30.02,NNE,19,7.6,7.6,89,0.00,,---,0.00,VWS V14.00,2013-02-07 11:12:00,
2013-02-07 05:17:00,23.0,20.2,30.02,North,9,8.7,8.7,89,0.00,,---,0.00,VWS V14.00,2013-02-07 11:17:00,
2013-02-07 05:22:00,23.0,20.5,30.02,North,8,6.3,8.7,90,0.00,,---,0.00,VWS V14.00,2013-02-07 11:22:00,
2013-02-07 05:27:00,22.8,20.3,30.02,NE,38,8.1,8.1,90,0.00,,---,0.00,VWS V14.00,2013-02-07 11:27:00,
2013-02-07 05:32:00,22.8,20.3,30.02,NNE,27,7.6,7.6,90,0.00,,---,0.00,VWS V14.00,2013-02-07 11:32:00,
2013-02-07 05:37:00,22.8,20.3,30.02,NNE,13,8.1,8.1,90,0.00,,---,0.00,VWS V14.00,2013-02-07 11:37:00,
2013-02-07 05:42:00,22.8,20.3,30.02,NNE,24,5.4,8.1,90,0.00,,---,0.00,VWS V14.00,2013-02-07 11:42:00,
2013-02-07 05:47:00,22.8,20.6,30.02,NNE,27,9.2,9.2,91,0.00,,---,0.00,VWS V14.00,2013-02-07 11:47:00,
2013-02-07 05:52:00,22.8,20.6,30.02,NNE,15,7.2,8.3,91,0.00,,---,0.00,VWS V14.00,2013-02-07 11:52:00,
2013-02-07 05:58:00,22.8,20.6,30.02,ENE,58,5.8,10.5,91,0.00,,---,0.00,VWS V14.00,2013-02-07 11:58:00,
2013-02-07 06:02:00,22.8,20.6,30.02,North,6,4.9,8.7,91,0.00,,---,0.00,VWS V14.00,2013-02-07 12:02:00,
2013-02-07 06:08:00,22.8,20.6,30.02,NNE,14,5.8,8.1,91,0.00,,---,0.00,VWS V14.00,2013-02-07 12:08:00,
2013-02-07 06:13:00,22.8,20.6,30.02,North,4,5.4,5.8,91,0.00,,---,0.00,VWS V14.00,2013-02-07 12:13:00,
2013-02-07 06:18:00,22.8,20.6,30.02,NNE,28,5.4,7.6,91,0.00,,---,0.00,VWS V14.00,2013-02-07 12:18:00,
2013-02-07 06:23:00,22.8,20.6,30.02,NNE,14,5.8,5.8,91,0.00,,---,0.00,VWS V14.00,2013-02-07 12:23:00,
2013-02-07 06:28:00,22.8,20.6,30.02,NNE,22,5.4,6.3,91,0.00,,---,0.00,VWS V14.00,2013-02-07 12:28:00,
2013-02-07 06:33:00,22.8,20.6,30.02,North,3,7.6,8.3,91,0.00,,---,0.00,VWS V14.00,2013-02-07 12:33:00,
2013-02-07 06:38:00,22.8,20.6,30.02,NNE,12,6.3,6.3,91,0.00,,---,0.00,VWS V14.00,2013-02-07 12:38:00,
2013-02-07 06:43:00,22.8,20.6,30.02,NNE,28,6.3,8.1,91,0.00,,---,0.00,VWS V14.00,2013-02-07 12:43:00,
2013-02-07 06:48:00,22.8,20.9,30.02,NE,39,6.3,6.3,92,0.00,,---,0.00,VWS V14.00,2013-02-07 12:48:00,
2013-02-07 06:53:00,22.8,20.9,30.02,North,7,8.1,8.1,92,0.00,,---,0.00,VWS V14.00,2013-02-07 12:53:00,
2013-02-07 06:58:00,22.8,20.9,30.02,NNE,21,11.0,11.0,92,0.00,,---,0.00,VWS V14.00,2013-02-07 12:58:00,
2013-02-07 07:03:00,22.8,20.9,30.02,North,8,8.1,10.1,92,0.00,,---,0.00,VWS V14.00,2013-02-07 13:03:00,
2013-02-07 07:08:00,22.8,20.9,30.02,NNE,14,5.4,10.1,92,0.00,,---,0.00,VWS V14.00,2013-02-07 13:08:00,
2013-02-07 07:13:00,22.8,20.9,30.02,North,8,8.3,8.7,92,0.00,,---,0.00,VWS V14.00,2013-02-07 13:13:00,
2013-02-07 07:18:00,22.8,20.9,30.02,North,357,8.7,10.5,92,0.00,,---,0.00,VWS V14.00,2013-02-07 13:18:00,
2013-02-07 07:23:00,22.8,20.9,30.02,NNE,23,8.7,10.5,92,0.00,,---,0.00,VWS V14.00,2013-02-07 13:23:00,
2013-02-07 07:28:00,22.8,20.9,30.02,NNE,19,6.3,8.1,92,0.00,,---,0.00,VWS V14.00,2013-02-07 13:28:00,
2013-02-07 07:33:00,22.8,20.9,30.02,North,10,10.1,10.1,92,0.00,,---,0.00,VWS V14.00,2013-02-07 13:33:00,
2013-02-07 07:38:00,22.8,20.9,30.02,NNE,28,5.8,10.1,92,0.00,,---,0.00,VWS V14.00,2013-02-07 13:38:00,
2013-02-07 07:43:00,22.8,20.9,30.05,North,7,8.3,8.7,92,0.00,,---,0.00,VWS V14.00,2013-02-07 13:43:00,
2013-02-07 07:48:00,22.8,20.9,30.05,NNE,23,11.0,11.0,92,0.00,,---,0.00,VWS V14.00,2013-02-07 13:48:00,
2013-02-07 07:53:00,22.8,20.9,30.05,NNE,16,10.1,10.1,92,0.00,,---,0.00,VWS V14.00,2013-02-07 13:53:00,
2013-02-07 07:58:00,22.8,20.9,30.05,North,10,8.3,10.1,92,0.00,,---,0.00,VWS V14.00,2013-02-07 13:58:00,
2013-02-07 08:03:00,22.8,20.9,30.05,North,10,7.2,10.5,92,0.00,,---,0.00,VWS V14.00,2013-02-07 14:03:00,
2013-02-07 08:08:00,23.0,21.0,30.05,North,5,8.1,10.5,92,0.00,,---,0.00,VWS V14.00,2013-02-07 14:08:00,
2013-02-07 08:13:00,23.0,21.0,30.05,NNE,12,8.1,10.1,92,0.00,,---,0.00,VWS V14.00,2013-02-07 14:13:00,
2013-02-07 08:18:00,23.2,21.0,30.05,North,6,6.3,8.7,91,0.00,,---,0.00,VWS V14.00,2013-02-07 14:18:00,
2013-02-07 08:23:00,23.2,21.0,30.05,NNE,21,8.3,10.5,91,0.00,,---,0.00,VWS V14.00,2013-02-07 14:23:00,
2013-02-07 08:28:00,23.2,21.0,30.08,NNE,17,8.3,11.0,91,0.00,,---,0.00,VWS V14.00,2013-02-07 14:28:00,
2013-02-07 08:33:00,23.4,21.1,30.08,NNE,19,5.8,8.3,91,0.00,,---,0.00,VWS V14.00,2013-02-07 14:33:00,
2013-02-07 08:38:00,23.4,21.1,30.08,North,0,5.8,10.5,91,0.00,,---,0.00,VWS V14.00,2013-02-07 14:38:00,
2013-02-07 08:43:00,23.5,21.3,30.08,NNE,14,8.1,8.3,91,0.00,,---,0.00,VWS V14.00,2013-02-07 14:43:00,
2013-02-07 08:48:00,23.7,21.5,30.08,North,11,8.3,10.1,91,0.00,,---,0.00,VWS V14.00,2013-02-07 14:48:00,
2013-02-07 08:53:00,23.7,21.2,30.08,NNE,24,7.6,10.1,90,0.00,,---,0.00,VWS V14.00,2013-02-07 14:53:00,
2013-02-07 08:58:00,23.7,21.2,30.08,NNE,30,5.8,8.1,90,0.00,,---,0.00,VWS V14.00,2013-02-07 14:58:00,
2013-02-07 09:03:00,23.7,21.2,30.08,North,357,10.5,12.8,90,0.00,,---,0.00,VWS V14.00,2013-02-07 15:03:00,
2013-02-07 09:08:00,23.9,21.1,30.08,North,10,11.0,11.0,89,0.00,,---,0.00,VWS V14.00,2013-02-07 15:08:00,
2013-02-07 09:13:00,24.1,21.3,30.08,NNE,20,10.1,10.1,89,0.00,,---,0.00,VWS V14.00,2013-02-07 15:13:00,
2013-02-07 09:18:00,24.1,21.0,30.08,NNE,21,7.6,10.1,88,0.00,,---,0.00,VWS V14.00,2013-02-07 15:18:00,
2013-02-07 09:23:00,24.1,21.0,30.08,North,7,6.3,8.1,88,0.00,,---,0.00,VWS V14.00,2013-02-07 15:23:00,
2013-02-07 09:28:00,24.1,21.0,30.08,NE,40,5.8,8.1,88,0.00,,---,0.00,VWS V14.00,2013-02-07 15:28:00,
2013-02-07 09:33:00,24.3,21.2,30.08,NNE,32,5.4,8.7,88,0.00,,---,0.00,VWS V14.00,2013-02-07 15:33:00,
2013-02-07 09:38:00,24.4,21.1,30.08,North,5,5.4,6.3,87,0.00,,---,0.00,VWS V14.00,2013-02-07 15:38:00,
2013-02-07 09:43:00,24.4,21.1,30.08,NNE,20,10.1,10.1,87,0.00,,---,0.00,VWS V14.00,2013-02-07 15:43:00,
2013-02-07 09:48:00,24.8,21.5,30.08,North,5,6.7,8.1,87,0.00,,---,0.00,VWS V14.00,2013-02-07 15:48:00,
2013-02-07 09:53:00,24.8,21.2,30.08,NE,35,7.6,8.1,86,0.00,,---,0.00,VWS V14.00,2013-02-07 15:53:00,
2013-02-07 09:58:00,25.0,21.1,30.08,North,9,8.7,11.0,85,0.00,,---,0.00,VWS V14.00,2013-02-07 15:58:00,
2013-02-07 10:03:00,25.2,21.0,30.08,NNE,28,8.7,8.7,84,0.00,,---,0.00,VWS V14.00,2013-02-07 16:03:00,
2013-02-07 10:08:00,25.3,20.6,30.08,NNE,24,8.7,8.7,82,0.00,,---,0.00,VWS V14.00,2013-02-07 16:08:00,
2013-02-07 10:13:00,25.5,20.8,30.11,NNE,13,10.5,10.5,82,0.00,,---,0.00,VWS V14.00,2013-02-07 16:13:00,
2013-02-07 10:18:00,25.5,20.2,30.11,NE,38,11.4,11.4,80,0.00,,---,0.00,VWS V14.00,2013-02-07 16:18:00,
2013-02-07 10:23:00,25.9,20.3,30.11,North,6,11.0,11.0,79,0.00,,---,0.00,VWS V14.00,2013-02-07 16:23:00,
2013-02-07 10:28:00,25.9,20.0,30.11,NNE,30,6.3,8.1,78,0.00,,---,0.00,VWS V14.00,2013-02-07 16:28:00,
2013-02-07 10:33:00,25.9,19.7,30.11,NNE,26,5.4,8.7,77,0.00,,---,0.00,VWS V14.00,2013-02-07 16:33:00,
2013-02-07 10:38:00,25.9,19.4,30.11,North,8,8.7,14.1,76,0.00,,---,0.00,VWS V14.00,2013-02-07 16:38:00,
2013-02-07 10:43:00,25.7,18.9,30.11,NNE,23,8.7,9.2,75,0.00,,---,0.00,VWS V14.00,2013-02-07 16:43:00,
2013-02-07 10:48:00,25.5,18.7,30.11,NNE,18,8.3,13.2,75,0.00,,---,0.00,VWS V14.00,2013-02-07 16:48:00,
2013-02-07 10:53:00,25.3,18.5,30.11,NNE,17,13.6,13.6,75,0.00,,---,0.00,VWS V14.00,2013-02-07 16:53:00,
2013-02-07 10:59:00,25.3,18.9,30.11,NNE,19,12.8,14.1,76,0.00,,---,0.00,VWS V14.00,2013-02-07 16:59:00,
2013-02-07 11:04:00,25.3,18.9,30.11,North,3,10.1,11.0,76,0.00,,---,0.00,VWS V14.00,2013-02-07 17:04:00,
2013-02-07 11:09:00,25.2,19.0,30.11,North,11,10.5,13.6,77,0.00,,---,0.00,VWS V14.00,2013-02-07 17:09:00,
2013-02-07 11:14:00,25.2,19.0,30.11,North,11,12.8,12.8,77,0.00,,---,0.00,VWS V14.00,2013-02-07 17:14:00,
2013-02-07 11:19:00,25.2,19.3,30.11,NNE,13,9.2,9.6,78,0.00,,---,0.00,VWS V14.00,2013-02-07 17:19:00,
2013-02-07 11:24:00,25.2,19.3,30.11,NE,37,10.5,15.9,78,0.00,,---,0.00,VWS V14.00,2013-02-07 17:24:00,
2013-02-07 11:29:00,25.2,19.6,30.11,North,5,7.6,10.1,79,0.00,,---,0.00,VWS V14.00,2013-02-07 17:29:00,
2013-02-07 11:34:00,25.3,20.0,30.11,North,8,11.0,11.0,80,0.00,,---,0.00,VWS V14.00,2013-02-07 17:34:00,
2013-02-07 11:39:00,25.7,20.7,30.11,North,6,11.0,11.0,81,0.00,,---,0.00,VWS V14.00,2013-02-07 17:39:00,
2013-02-07 11:44:00,26.1,21.0,30.11,NNE,20,8.7,11.0,81,0.00,,---,0.00,VWS V14.00,2013-02-07 17:44:00,
2013-02-07 11:49:00,26.1,21.0,30.11,NNE,20,15.0,15.4,81,0.00,,---,0.00,VWS V14.00,2013-02-07 17:49:00,
2013-02-07 11:54:00,26.1,21.0,30.11,North,9,7.6,11.0,81,0.00,,---,0.00,VWS V14.00,2013-02-07 17:54:00,
2013-02-07 11:59:00,26.4,21.4,30.11,North,353,7.6,8.7,81,0.00,,---,0.00,VWS V14.00,2013-02-07 17:59:00,
2013-02-07 12:04:00,26.6,21.6,30.11,North,357,10.1,13.2,81,0.00,,---,0.00,VWS V14.00,2013-02-07 18:04:00,
2013-02-07 12:09:00,26.8,21.5,30.11,North,10,8.7,8.7,80,0.00,,---,0.00,VWS V14.00,2013-02-07 18:09:00,
2013-02-07 12:14:00,27.0,21.6,30.11,North,357,8.3,8.7,80,0.00,,---,0.00,VWS V14.00,2013-02-07 18:14:00,
2013-02-07 12:19:00,27.0,21.3,30.11,NNE,18,8.3,13.2,79,0.00,,---,0.00,VWS V14.00,2013-02-07 18:19:00,
2013-02-07 12:24:00,27.0,21.0,30.11,NNE,14,8.1,12.3,78,0.00,,---,0.00,VWS V14.00,2013-02-07 18:24:00,
2013-02-07 12:29:00,27.0,21.0,30.11,NNE,18,8.7,15.4,78,0.00,,---,0.00,VWS V14.00,2013-02-07 18:29:00,
2013-02-07 12:34:00,27.1,20.9,30.11,North,10,11.0,11.0,77,0.00,,---,0.00,VWS V14.00,2013-02-07 18:34:00,
2013-02-07 12:39:00,27.1,20.9,30.11,North,6,8.1,9.2,77,0.00,,---,0.00,VWS V14.00,2013-02-07 18:39:00,
2013-02-07 12:44:00,27.3,20.8,30.11,NE,51,8.1,10.5,76,0.00,,---,0.00,VWS V14.00,2013-02-07 18:44:00,
2013-02-07 12:49:00,27.7,21.1,30.11,North,8,9.2,12.8,76,0.00,,---,0.00,VWS V14.00,2013-02-07 18:49:00,
2013-02-07 12:54:00,27.9,20.7,30.11,NNE,26,13.6,14.1,74,0.00,,---,0.00,VWS V14.00,2013-02-07 18:54:00,
2013-02-07 12:59:00,27.9,20.3,30.11,North,0,7.6,11.9,73,0.00,,---,0.00,VWS V14.00,2013-02-07 18:59:00,
2013-02-07 13:04:00,28.0,20.2,30.11,North,5,8.3,11.0,72,0.00,,---,0.00,VWS V14.00,2013-02-07 19:04:00,
2013-02-07 13:09:00,28.2,20.0,30.11,North,4,11.0,11.4,71,0.00,,---,0.00,VWS V14.00,2013-02-07 19:09:00,
2013-02-07 13:14:00,28.0,18.9,30.11,North,8,12.3,12.8,68,0.00,,---,0.00,VWS V14.00,2013-02-07 19:14:00,
2013-02-07 13:19:00,27.9,18.0,30.11,North,7,13.6,17.4,66,0.00,,---,0.00,VWS V14.00,2013-02-07 19:19:00,
2013-02-07 13:24:00,27.9,17.6,30.11,NE,39,11.0,13.2,65,0.00,,---,0.00,VWS V14.00,2013-02-07 19:24:00,
2013-02-07 13:29:00,28.4,18.1,30.08,NNE,30,11.9,11.9,65,0.00,,---,0.00,VWS V14.00,2013-02-07 19:29:00,
2013-02-07 13:34:00,28.6,18.0,30.08,North,6,10.1,13.2,64,0.00,,---,0.00,VWS V14.00,2013-02-07 19:34:00,
2013-02-07 13:39:00,28.6,16.9,30.08,NNE,24,13.2,17.4,61,0.00,,---,0.00,VWS V14.00,2013-02-07 19:39:00,
2013-02-07 13:44:00,28.6,16.9,30.08,North,8,10.5,11.0,61,0.00,,---,0.00,VWS V14.00,2013-02-07 19:44:00,
2013-02-07 13:49:00,28.6,16.5,30.08,NNE,16,10.5,15.0,60,0.00,,---,0.00,VWS V14.00,2013-02-07 19:49:00,
2013-02-07 13:54:00,28.9,16.8,30.08,North,0,5.4,8.1,60,0.00,,---,0.00,VWS V14.00,2013-02-07 19:54:00,
2013-02-07 13:59:00,29.7,17.1,30.08,North,10,11.0,11.0,59,0.00,,---,0.00,VWS V14.00,2013-02-07 19:59:00,
2013-02-07 14:04:00,29.5,15.7,30.08,North,8,12.8,13.2,56,0.00,,---,0.00,VWS V14.00,2013-02-07 20:04:00,
2013-02-07 14:09:00,29.5,15.7,30.08,North,8,12.8,12.8,56,0.00,,---,0.00,VWS V14.00,2013-02-07 20:09:00,
2013-02-07 14:14:00,29.5,15.7,30.08,North,6,13.2,15.0,56,0.00,,---,0.00,VWS V14.00,2013-02-07 20:14:00,
2013-02-07 14:19:00,29.3,15.1,30.08,NNE,29,11.4,12.8,55,0.00,,---,0.00,VWS V14.00,2013-02-07 20:19:00,
2013-02-07 14:24:00,29.1,15.0,30.08,North,3,18.3,18.3,55,0.00,,---,0.00,VWS V14.00,2013-02-07 20:24:00,
2013-02-07 14:29:00,28.9,14.8,30.08,NNE,29,11.4,11.4,55,0.00,,---,0.00,VWS V14.00,2013-02-07 20:29:00,
2013-02-07 14:34:00,29.3,15.1,30.08,NNE,21,19.7,19.7,55,0.00,,---,0.00,VWS V14.00,2013-02-07 20:34:00,
2013-02-07 14:39:00,29.5,14.9,30.08,NNE,14,7.6,12.8,54,0.00,,---,0.00,VWS V14.00,2013-02-07 20:39:00,
2013-02-07 14:44:00,29.5,14.9,30.08,NNE,15,8.1,12.3,54,0.00,,---,0.00,VWS V14.00,2013-02-07 20:44:00,
2013-02-07 14:49:00,29.3,14.7,30.08,NNE,12,9.2,13.2,54,0.00,,---,0.00,VWS V14.00,2013-02-07 20:49:00,
2013-02-07 14:55:00,29.5,14.9,30.08,NNE,15,13.2,15.0,54,0.00,,---,0.00,VWS V14.00,2013-02-07 20:55:00,
2013-02-07 15:00:00,29.5,14.5,30.08,North,357,12.8,14.1,53,0.00,,---,0.00,VWS V14.00,2013-02-07 21:00:00,
2013-02-07 15:05:00,29.5,14.5,30.08,NNE,17,12.8,12.8,53,0.00,,---,0.00,VWS V14.00,2013-02-07 21:05:00,
2013-02-07 15:10:00,29.5,14.5,30.08,NNE,28,8.7,12.3,53,0.00,,---,0.00,VWS V14.00,2013-02-07 21:10:00,
2013-02-07 15:15:00,29.7,14.6,30.11,North,357,12.8,12.8,53,0.00,,---,0.00,VWS V14.00,2013-02-07 21:15:00,
2013-02-07 15:20:00,29.5,14.5,30.11,North,357,15.0,15.0,53,0.00,,---,0.00,VWS V14.00,2013-02-07 21:20:00,
2013-02-07 15:25:00,29.1,14.6,30.11,NNE,23,10.1,12.8,54,0.00,,---,0.00,VWS V14.00,2013-02-07 21:25:00,
2013-02-07 15:30:00,29.1,14.6,30.11,North,357,11.0,11.0,54,0.00,,---,0.00,VWS V14.00,2013-02-07 21:30:00,
2013-02-07 15:35:00,28.9,14.4,30.11,North,10,11.4,13.2,54,0.00,,---,0.00,VWS V14.00,2013-02-07 21:35:00,
2013-02-07 15:40:00,28.8,14.2,30.11,NNE,25,15.0,18.3,54,0.00,,---,0.00,VWS V14.00,2013-02-07 21:40:00,
2013-02-07 15:45:00,28.6,14.1,30.11,North,10,13.2,14.5,54,0.00,,---,0.00,VWS V14.00,2013-02-07 21:45:00,
2013-02-07 15:50:00,28.6,14.1,30.11,North,357,16.3,16.3,54,0.00,,---,0.00,VWS V14.00,2013-02-07 21:50:00,
2013-02-07 15:55:00,28.4,14.3,30.11,NNE,27,10.5,17.4,55,0.00,,---,0.00,VWS V14.00,2013-02-07 21:55:00,
2013-02-07 16:00:00,28.4,14.3,30.11,North,11,8.3,10.5,55,0.00,,---,0.00,VWS V14.00,2013-02-07 22:00:00,
2013-02-07 16:05:00,28.4,14.7,30.11,North,8,10.5,11.0,56,0.00,,---,0.00,VWS V14.00,2013-02-07 22:05:00,
2013-02-07 16:10:00,28.4,14.7,30.11,North,7,11.0,11.0,56,0.00,,---,0.00,VWS V14.00,2013-02-07 22:10:00,
2013-02-07 16:15:00,28.4,14.7,30.11,North,357,8.7,11.0,56,0.00,,---,0.00,VWS V14.00,2013-02-07 22:15:00,
2013-02-07 16:20:00,28.2,14.6,30.11,NNE,18,12.8,12.8,56,0.00,,---,0.00,VWS V14.00,2013-02-07 22:20:00,
2013-02-07 16:25:00,28.0,14.4,30.11,NNE,14,8.7,9.2,56,0.00,,---,0.00,VWS V14.00,2013-02-07 22:25:00,
2013-02-07 16:30:00,27.9,14.2,30.14,North,1,8.3,11.0,56,0.00,,---,0.00,VWS V14.00,2013-02-07 22:30:00,
2013-02-07 16:35:00,27.9,14.2,30.14,North,7,10.1,10.1,56,0.00,,---,0.00,VWS V14.00,2013-02-07 22:35:00,
2013-02-07 16:40:00,27.9,14.2,30.14,North,357,8.3,10.1,56,0.00,,---,0.00,VWS V14.00,2013-02-07 22:40:00,
2013-02-07 16:45:00,27.9,14.2,30.14,North,0,8.1,10.1,56,0.00,,---,0.00,VWS V14.00,2013-02-07 22:45:00,
2013-02-07 16:51:00,27.7,14.0,30.14,NNE,12,8.7,10.1,56,0.00,,---,0.00,VWS V14.00,2013-02-07 22:51:00,
2013-02-07 16:56:00,27.5,14.3,30.14,North,357,8.3,11.4,57,0.00,,---,0.00,VWS V14.00,2013-02-07 22:56:00,
2013-02-07 17:01:00,27.3,14.1,30.14,North,7,8.7,10.5,57,0.00,,---,0.00,VWS V14.00,2013-02-07 23:01:00,
2013-02-07 17:06:00,27.3,14.1,30.14,North,357,7.2,8.7,57,0.00,,---,0.00,VWS V14.00,2013-02-07 23:06:00,
2013-02-07 17:11:00,27.1,14.3,30.14,North,357,9.2,9.2,58,0.00,,---,0.00,VWS V14.00,2013-02-07 23:11:00,
2013-02-07 17:16:00,27.1,14.7,30.14,North,357,11.0,12.8,59,0.00,,---,0.00,VWS V14.00,2013-02-07 23:16:00,
2013-02-07 17:21:00,27.0,14.9,30.14,North,357,8.7,15.0,60,0.00,,---,0.00,VWS V14.00,2013-02-07 23:21:00,
2013-02-07 17:26:00,27.0,15.3,30.14,North,0,7.6,10.1,61,0.00,,---,0.00,VWS V14.00,2013-02-07 23:26:00,
2013-02-07 17:31:00,27.0,15.7,30.14,North,357,10.1,13.2,62,0.00,,---,0.00,VWS V14.00,2013-02-07 23:31:00,
2013-02-07 17:36:00,26.8,15.5,30.14,North,4,9.6,13.2,62,0.00,,---,0.00,VWS V14.00,2013-02-07 23:36:00,
2013-02-07 17:41:00,26.8,15.9,30.14,North,357,8.1,10.5,63,0.00,,---,0.00,VWS V14.00,2013-02-07 23:41:00,
2013-02-07 17:46:00,26.8,15.9,30.14,North,353,10.5,10.5,63,0.00,,---,0.00,VWS V14.00,2013-02-07 23:46:00,
2013-02-07 17:51:00,26.8,15.9,30.14,NNE,23,8.7,12.8,63,0.00,,---,0.00,VWS V14.00,2013-02-07 23:51:00,
2013-02-07 17:56:00,26.6,16.1,30.17,North,357,8.7,9.2,64,0.00,,---,0.00,VWS V14.00,2013-02-07 23:56:00,
2013-02-07 18:01:00,26.6,16.1,30.17,North,10,10.1,12.8,64,0.00,,---,0.00,VWS V14.00,2013-02-08 00:01:00,
2013-02-07 18:06:00,26.6,16.4,30.17,NNE,21,8.3,10.1,65,0.00,,---,0.00,VWS V14.00,2013-02-08 00:06:00,
2013-02-07 18:11:00,26.6,16.4,30.17,North,9,11.4,12.3,65,0.00,,---,0.00,VWS V14.00,2013-02-08 00:11:00,
2013-02-07 18:16:00,26.6,16.1,30.17,North,2,9.6,9.6,64,0.00,,---,0.00,VWS V14.00,2013-02-08 00:16:00,
2013-02-07 18:21:00,26.6,16.1,30.17,NNE,23,10.1,12.3,64,0.00,,---,0.00,VWS V14.00,2013-02-08 00:21:00,
2013-02-07 18:26:00,26.6,16.1,30.17,North,3,8.7,11.4,64,0.00,,---,0.00,VWS V14.00,2013-02-08 00:26:00,
2013-02-07 18:31:00,26.6,16.1,30.17,North,8,11.0,11.0,64,0.00,,---,0.00,VWS V14.00,2013-02-08 00:31:00,
2013-02-07 18:36:00,26.6,16.1,30.17,NNE,26,8.1,10.5,64,0.00,,---,0.00,VWS V14.00,2013-02-08 00:36:00,
2013-02-07 18:41:00,26.6,16.1,30.17,NNE,18,8.1,10.1,64,0.00,,---,0.00,VWS V14.00,2013-02-08 00:41:00,
2013-02-07 18:46:00,26.6,16.1,30.17,NNE,14,8.3,11.4,64,0.00,,---,0.00,VWS V14.00,2013-02-08 00:46:00,
2013-02-07 18:51:00,26.6,16.4,30.17,NNE,21,5.8,8.1,65,0.00,,---,0.00,VWS V14.00,2013-02-08 00:51:00,
2013-02-07 18:56:00,26.6,16.4,30.17,North,3,7.6,7.6,65,0.00,,---,0.00,VWS V14.00,2013-02-08 00:56:00,
2013-02-07 19:01:00,26.4,16.6,30.17,North,357,8.1,10.5,66,0.00,,---,0.00,VWS V14.00,2013-02-08 01:01:00,
2013-02-07 19:06:00,26.4,17.0,30.17,North,11,10.1,11.4,67,0.00,,---,0.00,VWS V14.00,2013-02-08 01:06:00,
2013-02-07 19:11:00,26.4,17.0,30.17,NNW,348,8.3,10.5,67,0.00,,---,0.00,VWS V14.00,2013-02-08 01:11:00,
2013-02-07 19:16:00,26.4,17.3,30.17,North,2,6.7,8.7,68,0.00,,---,0.00,VWS V14.00,2013-02-08 01:16:00,
2013-02-07 19:21:00,26.2,17.5,30.17,North,357,8.3,11.0,69,0.00,,---,0.00,VWS V14.00,2013-02-08 01:21:00,
2013-02-07 19:26:00,26.2,17.5,30.20,NNE,12,8.3,9.6,69,0.00,,---,0.00,VWS V14.00,2013-02-08 01:26:00,
2013-02-07 19:31:00,26.2,17.5,30.20,NNE,19,10.5,10.5,69,0.00,,---,0.00,VWS V14.00,2013-02-08 01:31:00,
2013-02-07 19:36:00,26.1,17.3,30.20,North,10,9.2,9.2,69,0.00,,---,0.00,VWS V14.00,2013-02-08 01:36:00,
2013-02-07 19:41:00,26.1,17.6,30.20,North,3,8.7,10.1,70,0.00,,---,0.00,VWS V14.00,2013-02-08 01:41:00,
2013-02-07 19:47:00,26.1,17.6,30.20,North,357,6.3,8.7,70,0.00,,---,0.00,VWS V14.00,2013-02-08 01:47:00,
2013-02-07 19:52:00,26.1,17.6,30.20,NNW,346,8.1,8.7,70,0.00,,---,0.00,VWS V14.00,2013-02-08 01:52:00,
2013-02-07 19:57:00,25.9,17.5,30.20,North,5,10.1,11.4,70,0.00,,---,0.00,VWS V14.00,2013-02-08 01:57:00,
2013-02-07 20:02:00,25.9,17.5,30.20,North,357,8.1,8.7,70,0.00,,---,0.00,VWS V14.00,2013-02-08 02:02:00,
2013-02-07 20:07:00,25.9,17.5,30.20,North,1,8.1,8.7,70,0.00,,---,0.00,VWS V14.00,2013-02-08 02:07:00,
2013-02-07 20:12:00,25.7,17.3,30.20,North,0,8.7,10.5,70,0.00,,---,0.00,VWS V14.00,2013-02-08 02:12:00,
2013-02-07 20:17:00,25.7,17.3,30.20,NNE,28,8.3,10.1,70,0.00,,---,0.00,VWS V14.00,2013-02-08 02:17:00,
2013-02-07 20:22:00,25.7,17.3,30.20,NNE,20,5.4,8.7,70,0.00,,---,0.00,VWS V14.00,2013-02-08 02:22:00,
2013-02-07 20:27:00,25.5,17.1,30.20,North,357,8.3,10.5,70,0.00,,---,0.00,VWS V14.00,2013-02-08 02:27:00,
2013-02-07 20:32:00,25.5,17.1,30.20,North,9,5.8,5.8,70,0.00,,---,0.00,VWS V14.00,2013-02-08 02:32:00,
2013-02-07 20:37:00,25.5,17.1,30.20,NNE,21,8.1,8.1,70,0.00,,---,0.00,VWS V14.00,2013-02-08 02:37:00,
2013-02-07 20:42:00,25.3,16.9,30.20,North,2,7.2,7.6,70,0.00,,---,0.00,VWS V14.00,2013-02-08 02:42:00,
2013-02-07 20:47:00,25.3,16.9,30.20,North,2,8.7,9.6,70,0.00,,---,0.00,VWS V14.00,2013-02-08 02:47:00,
2013-02-07 20:52:00,25.3,17.3,30.20,North,4,5.8,8.3,71,0.00,,---,0.00,VWS V14.00,2013-02-08 02:52:00,
2013-02-07 20:57:00,25.3,17.3,30.20,North,357,7.6,8.3,71,0.00,,---,0.00,VWS V14.00,2013-02-08 02:57:00,
2013-02-07 21:02:00,25.3,17.3,30.20,North,6,7.2,8.3,71,0.00,,---,0.00,VWS V14.00,2013-02-08 03:02:00,
2013-02-07 21:07:00,25.3,17.3,30.20,North,2,6.3,6.3,71,0.00,,---,0.00,VWS V14.00,2013-02-08 03:07:00,
2013-02-07 21:12:00,25.2,17.1,30.20,North,5,5.8,8.1,71,0.00,,---,0.00,VWS V14.00,2013-02-08 03:12:00,
2013-02-07 21:17:00,25.2,17.1,30.20,North,357,7.6,10.1,71,0.00,,---,0.00,VWS V14.00,2013-02-08 03:17:00,
2013-02-07 21:22:00,25.2,17.1,30.20,North,1,5.8,6.3,71,0.00,,---,0.00,VWS V14.00,2013-02-08 03:22:00,
2013-02-07 21:27:00,25.2,17.1,30.20,North,5,7.6,8.1,71,0.00,,---,0.00,VWS V14.00,2013-02-08 03:27:00,
2013-02-07 21:32:00,25.2,17.1,30.20,North,9,6.3,6.7,71,0.00,,---,0.00,VWS V14.00,2013-02-08 03:32:00,
2013-02-07 21:37:00,25.2,17.1,30.20,North,7,6.3,6.3,71,0.00,,---,0.00,VWS V14.00,2013-02-08 03:37:00,
2013-02-07 21:42:00,25.0,16.9,30.20,North,4,8.3,8.3,71,0.00,,---,0.00,VWS V14.00,2013-02-08 03:42:00,
2013-02-07 21:47:00,25.0,16.9,30.20,North,357,6.3,7.6,71,0.00,,---,0.00,VWS V14.00,2013-02-08 03:47:00,
2013-02-07 21:52:00,24.8,17.1,30.20,North,357,5.4,7.6,72,0.00,,---,0.00,VWS V14.00,2013-02-08 03:52:00,
2013-02-07 21:57:00,25.0,17.2,30.23,North,353,7.6,8.7,72,0.00,,---,0.00,VWS V14.00,2013-02-08 03:57:00,
2013-02-07 22:02:00,25.0,16.9,30.23,North,357,6.3,8.1,71,0.00,,---,0.00,VWS V14.00,2013-02-08 04:02:00,
2013-02-07 22:07:00,24.8,16.8,30.23,North,357,5.8,9.2,71,0.00,,---,0.00,VWS V14.00,2013-02-08 04:07:00,
2013-02-07 22:12:00,24.8,16.8,30.23,North,353,8.1,8.7,71,0.00,,---,0.00,VWS V14.00,2013-02-08 04:12:00,
2013-02-07 22:17:00,24.8,16.8,30.23,North,10,8.3,9.6,71,0.00,,---,0.00,VWS V14.00,2013-02-08 04:17:00,
2013-02-07 22:22:00,24.8,16.8,30.23,North,7,8.1,8.7,71,0.00,,---,0.00,VWS V14.00,2013-02-08 04:22:00,
2013-02-07 22:27:00,24.8,16.4,30.23,North,357,8.3,8.3,70,0.00,,---,0.00,VWS V14.00,2013-02-08 04:27:00,
2013-02-07 22:32:00,24.6,16.2,30.23,North,0,8.1,9.6,70,0.00,,---,0.00,VWS V14.00,2013-02-08 04:32:00,
2013-02-07 22:37:00,24.6,16.2,30.23,NNE,14,8.3,11.0,70,0.00,,---,0.00,VWS V14.00,2013-02-08 04:37:00,
2013-02-07 22:42:00,24.6,16.2,30.23,North,5,8.3,8.3,70,0.00,,---,0.00,VWS V14.00,2013-02-08 04:42:00,
2013-02-07 22:47:00,24.6,16.2,30.23,North,10,8.7,8.7,70,0.00,,---,0.00,VWS V14.00,2013-02-08 04:47:00,
2013-02-07 22:52:00,24.6,16.2,30.23,North,5,6.3,9.6,70,0.00,,---,0.00,VWS V14.00,2013-02-08 04:52:00,
2013-02-07 22:57:00,24.6,15.9,30.23,North,4,10.1,10.5,69,0.00,,---,0.00,VWS V14.00,2013-02-08 04:57:00,
2013-02-07 23:00:00,24.6,16.2,30.23,North,8,12.8,12.8,70,0.00,,---,0.00,VWS V14.00,2013-02-08 05:00:00,
2013-02-07 23:01:00,24.6,16.2,30.23,North,8,10.1,12.8,70,0.00,,---,0.00,VWS V14.00,2013-02-08 05:01:00,
2013-02-07 23:06:00,24.6,16.2,30.23,North,0,7.6,10.1,70,0.00,,---,0.00,VWS V14.00,2013-02-08 05:06:00,
2013-02-07 23:11:00,24.4,16.1,30.23,North,357,7.6,8.1,70,0.00,,---,0.00,VWS V14.00,2013-02-08 05:11:00,
2013-02-07 23:16:00,24.4,16.1,30.23,North,1,6.3,7.2,70,0.00,,---,0.00,VWS V14.00,2013-02-08 05:16:00,
2013-02-07 23:21:00,24.4,16.1,30.23,NNE,27,4.5,5.8,70,0.00,,---,0.00,VWS V14.00,2013-02-08 05:21:00,
2013-02-07 23:26:00,24.4,16.4,30.23,North,357,6.3,6.3,71,0.00,,---,0.00,VWS V14.00,2013-02-08 05:26:00,
2013-02-07 23:31:00,24.3,16.2,30.23,North,5,5.8,8.7,71,0.00,,---,0.00,VWS V14.00,2013-02-08 05:31:00,
2013-02-07 23:36:00,24.3,16.2,30.23,North,10,8.7,8.7,71,0.00,,---,0.00,VWS V14.00,2013-02-08 05:36:00,
2013-02-07 23:41:00,24.1,16.0,30.23,North,357,6.3,6.7,71,0.00,,---,0.00,VWS V14.00,2013-02-08 05:41:00,
2013-02-07 23:46:00,24.1,16.0,30.23,NNE,25,7.6,8.1,71,0.00,,---,0.00,VWS V14.00,2013-02-08 05:46:00,
2013-02-07 23:51:00,24.1,16.0,30.23,NNE,29,6.3,6.3,71,0.00,,---,0.00,VWS V14.00,2013-02-08 05:51:00,
2013-02-07 23:56:00,24.1,16.4,30.23,North,7,7.2,7.2,72,0.00,,---,0.00,VWS V14.00,2013-02-08 05:56:00,